When you browse on this site, cookies collect data to enhance your experience and personalize the content and advertising you see.
Visit our Privacy Policy to learn more. By continuing to use the site, you agree to this use of cookies and data.
  • în România
  • Lista ţărilor
  • Pe 7 zile
  • Temperatura apei
  • Hartă satelitară
  • Meteo pe hartă
  • Widget-uri
  • user-avatar
    Intrare

    Meteo pe oră la Pravokumskiy

    Astăzi, 20 Noiembrie, Marţi

    Timp Temperatura Precipitaţii Vânt Presiune Umiditate
    00:00 0°C° 0 mm 3 m/s 760 mmHg 77%
    01:00 0°C° 0 mm 3 m/s 759 mmHg 80%
    02:00 0°C° 0 mm 3 m/s 759 mmHg 82%
    03:00 0°C° 0 mm 3 m/s 759 mmHg 84%
    04:00 0°C° 0 mm 3 m/s 759 mmHg 84%
    05:00 +1°C° 0 mm 3 m/s 758 mmHg 85%
    06:00 +1°C° 0 mm 3 m/s 758 mmHg 85%
    07:00 +1°C° 0.1 mm 3 m/s 758 mmHg 85%
    08:00 +2°C° 0.1 mm 3 m/s 758 mmHg 84%
    09:00 +2°C° 0 mm 3 m/s 758 mmHg 83%
    10:00 +3°C° 0.9 mm 2 m/s 758 mmHg 84%
    11:00 +3°C° 0.9 mm 2 m/s 758 mmHg 85%
    12:00 +4°C° 0.9 mm 2 m/s 757 mmHg 86%
    13:00 +4°C° 0.8 mm 2 m/s 757 mmHg 88%
    14:00 +4°C° 0.8 mm 2 m/s 756 mmHg 89%
    15:00 +4°C° 0.8 mm 2 m/s 756 mmHg 90%
    16:00 +5°C° 1.7 mm 1 m/s 756 mmHg 92%
    17:00 +5°C° 1.7 mm 1 m/s 756 mmHg 93%
    18:00 +5°C° 1.7 mm 1 m/s 755 mmHg 95%
    19:00 +5°C° 2 mm 1 m/s 755 mmHg 95%
    20:00 +5°C° 2 mm 1 m/s 755 mmHg 96%
    21:00 +5°C° 2 mm 1 m/s 755 mmHg 96%
    22:00 +6°C° 0.8 mm 1 m/s 755 mmHg 96%
    23:00 +5°C° 0.8 mm 2 m/s 755 mmHg 95%

    Mâine, 21 Noiembrie, Miercuri

    Timp Temperatura Precipitaţii Vânt Presiune Umiditate
    00:00 +5°C° 0.8 mm 2 m/s 756 mmHg 94%
    01:00 +4°C° 0.1 mm 3 m/s 756 mmHg 94%
    02:00 +4°C° 0.1 mm 3 m/s 756 mmHg 94%
    03:00 +4°C° 0.1 mm 4 m/s 756 mmHg 93%
    04:00 +4°C° 0 mm 4 m/s 756 mmHg 93%
    05:00 +4°C° 0 mm 4 m/s 756 mmHg 93%
    06:00 +4°C° 0 mm 4 m/s 757 mmHg 93%
    07:00 +4°C° 0 mm 4 m/s 757 mmHg 90%
    08:00 +4°C° 0 mm 4 m/s 757 mmHg 88%
    09:00 +3°C° 0 mm 4 m/s 758 mmHg 86%
    10:00 +4°C° 0 mm 3 m/s 758 mmHg 82%
    11:00 +4°C° 0 mm 3 m/s 757 mmHg 79%
    12:00 +6°C° 0 mm 2 m/s 757 mmHg 75%
    13:00 +6°C° 0 mm 2 m/s 757 mmHg 74%
    14:00 +6°C° 0 mm 2 m/s 757 mmHg 73%
    15:00 +5°C° 0 mm 2 m/s 757 mmHg 72%
    16:00 +5°C° 0 mm 2 m/s 757 mmHg 72%
    17:00 +6°C° 0 mm 1 m/s 757 mmHg 73%
    18:00 +6°C° 0 mm 1 m/s 757 mmHg 73%
    19:00 +6°C° 0 mm 1 m/s 757 mmHg 73%
    20:00 +5°C° 0 mm 1 m/s 757 mmHg 72%
    21:00 +5°C° 0 mm 1 m/s 757 mmHg 72%
    22:00 +4°C° 0 mm 2 m/s 757 mmHg 71%
    23:00 +3°C° 0 mm 2 m/s 757 mmHg 71%

    Poimâine, 22 Noiembrie, Joi

    Timp Temperatura Precipitaţii Vânt Presiune Umiditate
    00:00 +3°C° 0 mm 2 m/s 757 mmHg 70%
    01:00 +3°C° 0 mm 2 m/s 756 mmHg 70%
    02:00 +4°C° 0 mm 1 m/s 756 mmHg 70%
    03:00 +3°C° 0 mm 1 m/s 756 mmHg 70%
    04:00 +3°C° 0 mm 1 m/s 756 mmHg 70%
    05:00 +3°C° 0 mm 1 m/s 756 mmHg 71%
    06:00 +3°C° 0 mm 1 m/s 756 mmHg 72%
    07:00 +3°C° 0 mm 1 m/s 756 mmHg 70%
    08:00 +3°C° 0 mm 1 m/s 757 mmHg 69%
    09:00 +3°C° 0 mm 1 m/s 757 mmHg 67%
    10:00 +4°C° 0 mm 1 m/s 756 mmHg 66%
    11:00 +5°C° 0 mm 1 m/s 756 mmHg 64%
    12:00 +6°C° 0 mm 1 m/s 756 mmHg 62%
    13:00 +5°C° 0 mm 2 m/s 756 mmHg 61%
    14:00 +5°C° 0 mm 2 m/s 756 mmHg 61%
    15:00 +5°C° 0 mm 2 m/s 755 mmHg 61%
    16:00 +5°C° 0 mm 2 m/s 756 mmHg 64%
    17:00 +4°C° 0 mm 2 m/s 756 mmHg 67%
    18:00 +3°C° 0 mm 2 m/s 756 mmHg 70%
    19:00 +2°C° 0 mm 2 m/s 756 mmHg 71%
    20:00 +2°C° 0 mm 2 m/s 756 mmHg 72%
    21:00 +1°C° 0 mm 2 m/s 757 mmHg 73%
    22:00 +1°C° 0 mm 2 m/s 757 mmHg 74%
    23:00 +1°C° 0 mm 2 m/s 756 mmHg 76%

    23 Noiembrie, Vineri

    Timp Temperatura Precipitaţii Vânt Presiune Umiditate
    00:00 -1°C° 0 mm 2 m/s 756 mmHg 77%
    01:00 -1°C° 0 mm 2 m/s 756 mmHg 78%
    02:00 -1°C° 0 mm 2 m/s 756 mmHg 79%
    03:00 -2°C° 0 mm 2 m/s 756 mmHg 79%
    04:00 -2°C° 0 mm 2 m/s 756 mmHg 79%
    05:00 -2°C° 0 mm 2 m/s 756 mmHg 80%
    06:00 -2°C° 0 mm 3 m/s 756 mmHg 80%
    07:00 -1°C° 0 mm 3 m/s 756 mmHg 75%
    08:00 -2°C° 0 mm 4 m/s 757 mmHg 71%
    09:00 -1°C° 0 mm 5 m/s 757 mmHg 67%
    10:00 0°C° 0 mm 5 m/s 757 mmHg 61%
    11:00 +1°C° 0 mm 6 m/s 757 mmHg 55%
    12:00 +2°C° 0 mm 6 m/s 757 mmHg 49%
    13:00 +2°C° 0 mm 6 m/s 757 mmHg 50%
    14:00 +2°C° 0 mm 6 m/s 758 mmHg 51%
    15:00 +2°C° 0 mm 7 m/s 758 mmHg 51%
    16:00 +1°C° 0 mm 6 m/s 759 mmHg 58%
    17:00 -1°C° 0 mm 5 m/s 760 mmHg 64%
    18:00 -2°C° 0 mm 5 m/s 762 mmHg 71%
    19:00 -2°C° 0 mm 4 m/s 763 mmHg 74%
    20:00 -3°C° 0 mm 4 m/s 764 mmHg 78%
    21:00 -4°C° 0 mm 3 m/s 765 mmHg 81%
    22:00 -4°C° 0 mm 3 m/s 765 mmHg 82%
    23:00 -3°C° 0 mm 2 m/s 766 mmHg 82%

    24 Noiembrie, Sâmbătă

    Timp Temperatura Precipitaţii Vânt Presiune Umiditate
    00:00 -3°C° 0 mm 2 m/s 766 mmHg 82%
    01:00 -3°C° 0 mm 2 m/s 766 mmHg 82%
    02:00 -3°C° 0 mm 2 m/s 766 mmHg 82%
    03:00 -1°C° 0 mm 1 m/s 767 mmHg 81%
    04:00 -1°C° 0 mm 1 m/s 767 mmHg 79%
    05:00 -1°C° 0 mm 1 m/s 767 mmHg 77%
    06:00 -1°C° 0 mm 1 m/s 767 mmHg 75%
    07:00 -3°C° 0 mm 2 m/s 767 mmHg 69%
    08:00 -2°C° 0 mm 2 m/s 768 mmHg 63%
    09:00 -2°C° 0 mm 3 m/s 768 mmHg 58%
    10:00 -1°C° 0 mm 3 m/s 768 mmHg 53%
    11:00 0°C° 0 mm 3 m/s 767 mmHg 48%
    12:00 0°C° 0 mm 4 m/s 767 mmHg 44%
    13:00 0°C° 0 mm 4 m/s 766 mmHg 44%
    14:00 0°C° 0 mm 4 m/s 766 mmHg 44%
    15:00 0°C° 0 mm 5 m/s 766 mmHg 44%
    16:00 -1°C° 0 mm 4 m/s 766 mmHg 47%
    17:00 -2°C° 0 mm 4 m/s 766 mmHg 50%
    18:00 -2°C° 0 mm 3 m/s 766 mmHg 52%
    19:00 -2°C° 0 mm 3 m/s 765 mmHg 54%
    20:00 -4°C° 0 mm 3 m/s 765 mmHg 56%
    21:00 -4°C° 0 mm 3 m/s 765 mmHg 57%
    22:00 -4°C° 0 mm 3 m/s 765 mmHg 62%
    23:00 -2°C° 0 mm 2 m/s 764 mmHg 66%

    25 Noiembrie, Duminică

    Timp Temperatura Precipitaţii Vânt Presiune Umiditate
    00:00 -2°C° 0 mm 2 m/s 764 mmHg 71%
    01:00 -2°C° 0 mm 2 m/s 763 mmHg 76%
    02:00 -2°C° 0 mm 2 m/s 763 mmHg 81%
    03:00 -2°C° 0 mm 2 m/s 762 mmHg 86%
    04:00 +1°C° 0 mm 1 m/s 762 mmHg 88%
    05:00 +1°C° 0 mm 1 m/s 762 mmHg 90%
    06:00 +2°C° 0 mm 1 m/s 761 mmHg 93%
    07:00 +2°C° 0 mm 1 m/s 761 mmHg 92%
    08:00 +3°C° 0 mm 1 m/s 761 mmHg 91%
    09:00 +3°C° 0 mm 1 m/s 761 mmHg 90%
    10:00 +4°C° 0 mm 1 m/s 760 mmHg 86%
    11:00 +5°C° 0 mm 1 m/s 759 mmHg 82%
    12:00 +6°C° 0 mm 1 m/s 759 mmHg 79%
    13:00 +6°C° 0 mm 1 m/s 759 mmHg 79%
    14:00 +7°C° 0 mm 1 m/s 758 mmHg 79%
    15:00 +7°C° 0 mm 1 m/s 758 mmHg 79%
    16:00 +5°C° 0 mm 1 m/s 758 mmHg 83%
    17:00 +4°C° 0 mm 1 m/s 758 mmHg 88%
    18:00 +3°C° 0 mm 1 m/s 758 mmHg 93%
    19:00 +1°C° 0 mm 0 m/s 758 mmHg 93%
    20:00 +1°C° 0 mm 0 m/s 758 mmHg 93%
    21:00 +1°C° 0 mm 0 m/s 757 mmHg 93%
    22:00 +1°C° 0 mm 0 m/s 757 mmHg 93%
    23:00 +1°C° 0 mm 0 m/s 757 mmHg 93%
    Arată mai mult